DMC3-FM3

Last updated on Sat Jun 20 2026 00:02:57 GMT+0000 (Coordinated Universal Time)

1 40717U 15032C 26170.74262519 .00000652 00000+0 81045-4 0 9996 2 40717 97.6560 39.1473 0006751 57.9964 302.1907 14.85737838590291
UTC large
Height (km)
Speed (km/s)
/
Latitude / Longitude
Inclination (degrees)
Orbital Period (minutes)
Azimuth
Elevation
Range (km)
Doppler Factor

Next 0 passes for location: London (51.5072 / 0.1276)

Sorry there are no passes over London.